Location: Newark
(35.6000°N, 117.0333°E)
Time: 22:29:04
(UTC+00:00)

Envisat - Visible Passes

Search period start: 15 July 2019 00:00
Search period end: 25 July 2019 00:00
Orbit: 764 x 766 km, 98.1° (Epoch: 15 July)

Date Brightness Start Highest point End Pass type
(mag) Time Alt. Az. Time Alt. Az. Time Alt. Az.
16 Jul 5.8 11:52:44 10° SW 11:55:42 15° W 11:58:39 10° WNW visible
21 Jul 6.2 12:09:22 10° W 12:10:07 10° W 12:10:53 10° W visible
24 Jul 5.9 11:56:11 10° WSW 11:58:46 14° W 12:01:21 10° WNW visible
